Regional Weather Roundup
Issued by NWS Albany, NY

Home | Current Version | Previous Version | Graphics & Text | Print | Product List | Glossary Off
Versions: 1 2 3 4 5 6 7 8 9 10 11 12 13 14 15 16 17 18 19 20 21 22 23 24 25 26 27 28 29 30 31 32 33 34 35 36 37 38 39 40 41 42 43 44 45 46 47 48 49 50

000
ASUS41 KALY 250910
RWRALY

NEW YORK STATE HOURLY WEATHER ROUNDUP
NATIONAL WEATHER SERVICE ALBANY NY
400 AM EST SUN JAN 25 2015

NOTE: "FAIR" INDICATES FEW OR NO CLOUDS BELOW 12,000 FEET WITH NO
SIGNIFICANT WEATHER AND/OR NO OBSTRUCTIONS TO VISIBILITY.

NYZ032-033-038>043-046>054-057>066-NYZ062>081-251000-
EAST


CITY           SKY/WX    TMP DP  RH WIND       PRES   REMARKS
ALBANY         FLURRIES  34  26  72 SW7       29.48R WCI  28
GLENS FALLS    CLOUDY    32  25  75 SW8       29.41R WCI  25
POUGHKEEPSIE   MOCLDY    35  25  66 SW12      29.52R WCI  27
MONTGOMERY     CLOUDY    34  25  69 SW9       29.53R WCI  27
WHITE PLAINS   MOCLDY    34  25  69 W8        29.54R WCI  27
ISLIP          PTCLDY    34  25  69 W10       29.54R WCI  26
NEW YORK CITY  PTCLDY    36  25  64 W16G22    29.58R WCI  26
CENTRAL PARK   PTCLDY    36  24  62 W7        29.60R WCI  30
$$

NYZ005>009-017-018-044>046-055-056-251000-
CENTRAL


CITY           SKY/WX    TMP DP  RH WIND       PRES   REMARKS
FULTON         CLOUDY    31  22  69 NW22G31   29.55R WCI  18
SYRACUSE       FLURRIES  30  24  78 W17G29    29.54R WCI  18
ROME           CLOUDY    32  28  85 W14       29.50R WCI  22
ELMIRA         CLOUDY    34  27  75 W9        29.56R WCI  27
BINGHAMTON     CLOUDY    29  25  85 W13       29.49R WCI  19
MONTICELLO     CLOUDY    28  25  86 W8G16     29.50R WCI  20
$$

NYZ026>034-041>043-251000-
NORTH


CITY           SKY/WX    TMP DP  RH WIND       PRES   REMARKS
WATERTOWN      CLOUDY    26  19  74 N17G26    29.55R WCI  13
FORT DRUM      NOT AVBL
MASSENA        LGT SNOW  19  13  77 NW17G31   29.51R WCI   4
SARANAC LAKE   LGT SNOW  25  21  85 VRB7      29.32R FOG     WCI  17
PLATTSBURGH    LGT SNOW  31  27  85 NW9       29.38R FOG     WCI  23
$$

NYZ001>004-010>016-019>021-251000-
WEST


CITY           SKY/WX    TMP DP  RH WIND       PRES   REMARKS
NIAGARA FALLS  CLOUDY    27  19  72 NW18      29.67R WCI  14
BUFFALO        MOCLDY    28  22  78 NW13      29.66R WCI  17
DUNKIRK        CLOUDY    30  22  72 W12G22    29.69R WCI  20
JAMESTOWN      CLOUDY    27  21  80 NW12      29.64R WCI  16
WELLSVILLE     FLURRIES  29  24  82 NW23G31   29.57R WCI  15
ROCHESTER      MOCLDY    29  20  69 NW22G30   29.62R WCI  15
PENN YAN       MIX PCPN  32  24  72 NW16G28   29.56R WCI  21
$$

             KEY
       WCI = WIND CHILL INDEX
       VSB = VISIBILITY
       HX  = HEAT INDEX
$$



USA.gov is the U.S. government's official web portal to all federal, state and local government web resources and services.